Regional Weather Roundup
Issued by NWS Mobile, AL

Home | Current Version | Previous Version | Text Only | Print | Product List | Glossary On
Versions: 1 2 3 4 5 6 7 8 9 10 11 12 13 14 15 16 17 18 19 20 21 22 23 24 25 26 27 28 29 30 31 32 33 34 35 36 37 38 39 40 41 42 43 44 45 46 47 48 49 50
000
ASUS44 KMOB 172312
RWRMOB
REGIONAL WEATHER ROUNDUP
NATIONAL WEATHER SERVICE MOBILE AL
500 PM CST TUE JAN 17 2017

NOTE: "FAIR" INDICATES FEW OR NO CLOUDS BELOW 12,000 FEET WITH NO
      SIGNIFICANT WEATHER AND/OR OBSTRUCTIONS TO VISIBILITY.

  * THESE STATIONS ARE PART OF THE UNIVERSITY OF SOUTH ALABAMA
    MESONET AND ARE NOT UNDER NWS OR FAA QUALITY CONTROL.

ALZ061>064-180000-
COASTAL ALABAMA

CITY           SKY/WX    TMP DP  RH WIND       PRES   REMARKS
MOBILE REG APT MOCLDY    72  66  81 S9        30.17R
BROOKLEY FIELD CLOUDY    71  69  93 S7        30.17R
USA CAMPUS*      N/A     72  66  83 CALM      30.16R
DOG RIVER*       N/A     70  68  94 S5        30.96S


CITY           SKY/WX    TMP DP  RH WIND       PRES   REMARKS
GULF SHORES    MOCLDY    71  71 100 SE6       30.17R

$$

ALZ051>060-180000-
INTERIOR SOUTHWEST AND SOUTH CENTRAL ALABAMA

CITY           SKY/WX    TMP DP  RH WIND       PRES   REMARKS
GREENVILLE     CLOUDY    73  58  59 SW6       30.16
EVERGREEN      CLOUDY    70  63  78 SE5       30.17R
ATMORE*          N/A     72  64  78 S7        30.18R
ANDALUSIA/OPP  PTCLDY    74  62  66 CALM      30.17R
ANDALUSIA*       N/A     72  63  73 S3        30.17R
FLORALA APT    PTCLDY    71  61  70 S6        30.19R
FLORALA*         N/A     70  63  78 CALM      30.94R

$$

FLZ001>006-180000-
WESTERN FLORIDA PANHANDLE

CITY           SKY/WX    TMP DP  RH WIND       PRES   REMARKS
PENSACOLA      PTCLDY    73  66  78 S8        30.17R
NAS PENSACOLA  MOCLDY    71  66  84 S7        30.17R
MILTON         MOCLDY    71  66  84 S9        30.17R
WHTNG S FIELD  MOCLDY    73  67  81 S7        30.18R


CITY           SKY/WX    TMP DP  RH WIND       PRES   REMARKS
JAY*             N/A     72  64  78 S7        30.17R
DUKE FIELD     MOCLDY    71  65  80 S6        30.17R
CRESTVIEW      PTCLDY    72  64  76 S6        30.19R
VALPARAISO     PTCLDY    70  66  88 SE7       30.18S
DESTIN         PTCLDY    70  67  90 SE6       30.18S

$$

MSZ076-079-180000-
INTERIOR SOUTHEAST MISSISSIPPI

CITY           SKY/WX    TMP DP  RH WIND       PRES   REMARKS
LEAKESVILLE*   NOT AVBL
AGRICOLA*      NOT AVBL

$$

MARINE OBSERVATIONS

STATION/POSITION TIME  TEMP    WIND        PRES    WAVE
                       AIR SEA DIR/SP/G            HT/PER
                 (UTC) (F)     (DEG/KT/KT) (MB)    (FT/S)
PASCAGOULA       2248   68     140/  7/  9 1021.1R
PETIT BOIS ISLND 2248   67     130/  6/  8 1021.9R
GRAND BAY        2130   67     140/  7     1021.0F
KATRINA CUT      2230          140/  8     1021.0R
CEDAR POINT      2230   69     150/  7     1021.3S
E DAUPHIN ISLAND 2200   68     120/ 10/ 11 1020.7F
MIDDLE BAY LIGHT 2230   67     140/  9     1021.0F
USCG MOBILE BAY  2248   68 60  180/  6/ 11 1021.9R
STATE DOCKS      2248   68 58              1021.1R
MEAHER PARK      2230   69     170/  9     1021.3R
WEEKS BAY        2145   74                   N/A
FORT MORGAN      2248   68     150/ 11/ 11   N/A
12 S ORANGE BCH  2250   68 67  100/  4/  6 1021.4R   3/ 6
PENSACOLA BAY    2248   71 64  180/  5/  6 1021.8R
67 S FORT MORGAN 2230   72                 1021.0R

$$

SELECTED LOCATIONS ACROSS THE REGION

CITY           SKY/WX    TMP DP  RH WIND       PRES   REMARKS
NEW ORLEANS    MOCLDY    74  65  73 S10       30.11S
GULFPORT       PTCLDY    71  68  90 S7        30.13F
PASCAGOULA AP  MOCLDY    71  67  87 S3        30.15S
PASCAGOULA*    NOT AVBL
HATTIESBURG    MOCLDY    75  64  68 S7        30.12S
LAUREL         CLOUDY    75  59  57 SW5       30.14R
MERIDIAN       CLOUDY    76  63  64 CALM      30.13R
JACKSON        CLOUDY    71  61  70 NE8       30.11R
MONTGOMERY     PTCLDY    75  56  51 S6        30.15R
TROY           CLEAR     71  59  65 S5        30.18R
ASHFORD*         N/A     72  63  73 S3        30.17R
DOTHAN         PTCLDY    71  62  73 SW5       30.21S
PANAMA CITY    CLEAR     69  65  86 SE5       30.18S

$$




USA.gov is the U.S. government's official web portal to all federal, state and local government web resources and services.